Вернуться в каталог

ONEWEB-0262

АктивенСвязьPO
NORAD 48980·PAYLOAD·🇬🇧 United Kingdom

Запущен Jul 1, 2021 с Vostochny Cosmodrome

Loading…

Ближайшие Пролёты (ближайшие 24 часа)

TLE

СвежийSource: CelesTrak SupGP

Эпоха: Sep 14, 2026, 06:46 UTC

1 48980C 21060P   26257.28212222  .00003886  00000+0  10177-1 0  2579
2 48980  87.9148 211.0791 0001899  73.7458  31.8179 13.16588747    10

Отслеживайте ONEWEB-0262 в реальном времени с AllMySat

Download on the App Store